User: anonymous   Login
Location: Theydon Bois
(51.6750°N, 0.1050°E)
Time: 01:37:55
(UTC+01:00)
Language:

HJ-1C - Orbit

View from above orbital plane
View from above orbital plane
View from above satellite
View from above satellite

Ground track
Ground track

The orbit data is extracted from the following two-line orbital elements,

1 38997U 12064A   17295.84785041  .00002700  00000-0  72744-4 0  9997
2 38997  97.2523 325.2786 0008988 281.7437 185.1052 15.38670203276668
Epoch (UTC): 22 October 2017 20:20:54
Eccentricity: 0.0008988
inclination: 97.2523°
perigee height: 444 km
apogee height: 456 km
right ascension of ascending node: 325.2786°
argument of perigee: 281.7437°
revolutions per day: 15.38670203
mean anomaly at epoch: 185.1052°
orbit number at epoch: 27666

The dashed part of the orbit path shows where the satellite is in the earth's shadow,  

DLR